When you browse on this site, cookies collect data to enhance your experience and personalize the content and advertising you see.
Visit our Privacy Policy to learn more. By continuing to use the site, you agree to this use of cookies and data.

Tiempo cada hora Ondjiwa

Hoy, 14 Agosto, Viernes

Tiempo Temperatura Precipitaciones Viento Presión Humedad
00:00 +19°C° 0 mm 3 mps 668 mmHg 20%
01:00 +17°C° 0 mm 3 mps 668 mmHg 22%
02:00 +16°C° 0 mm 3 mps 667 mmHg 23%
03:00 +16°C° 0 mm 3 mps 667 mmHg 24%
04:00 +14°C° 0 mm 3 mps 667 mmHg 25%
05:00 +14°C° 0 mm 3 mps 668 mmHg 25%
06:00 +14°C° 0 mm 3 mps 668 mmHg 25%
07:00 +14°C° 0 mm 3 mps 669 mmHg 25%
08:00 +19°C° 0 mm 4 mps 669 mmHg 20%
09:00 +25°C° 0 mm 5 mps 670 mmHg 15%
10:00 +30°C° 0 mm 6 mps 671 mmHg 10%
11:00 +32°C° 0 mm 6 mps 670 mmHg 9%
12:00 +33°C° 0 mm 5 mps 669 mmHg 8%
13:00 +34°C° 0 mm 5 mps 669 mmHg 7%
14:00 +34°C° 0 mm 4 mps 668 mmHg 7%
15:00 +34°C° 0 mm 3 mps 667 mmHg 7%
16:00 +34°C° 0 mm 3 mps 667 mmHg 6%
17:00 +30°C° 0 mm 2 mps 666 mmHg 8%
18:00 +26°C° 0 mm 1 mps 666 mmHg 10%
19:00 +23°C° 0 mm 1 mps 665 mmHg 12%
20:00 +22°C° 0 mm 1 mps 665 mmHg 13%
21:00 +21°C° 0 mm 1 mps 666 mmHg 14%
22:00 +21°C° 0 mm 1 mps 666 mmHg 14%
23:00 +20°C° 0 mm 1 mps 666 mmHg 15%

Mañana, 15 Agosto, Sábado

Tiempo Temperatura Precipitaciones Viento Presión Humedad
00:00 +18°C° 0 mm 1 mps 666 mmHg 16%
01:00 +16°C° 0 mm 2 mps 665 mmHg 17%
02:00 +16°C° 0 mm 1 mps 665 mmHg 18%
03:00 +15°C° 0 mm 1 mps 665 mmHg 20%
04:00 +14°C° 0 mm 1 mps 665 mmHg 21%
05:00 +14°C° 0 mm 1 mps 665 mmHg 21%
06:00 +13°C° 0 mm 0 mps 666 mmHg 21%
07:00 +13°C° 0 mm 0 mps 667 mmHg 22%
08:00 +18°C° 0 mm 0 mps 667 mmHg 18%
09:00 +22°C° 0 mm 0 mps 668 mmHg 13%
10:00 +27°C° 0 mm 0 mps 669 mmHg 9%
11:00 +31°C° 0 mm 1 mps 669 mmHg 8%
12:00 +33°C° 0 mm 1 mps 668 mmHg 7%
13:00 +34°C° 0 mm 1 mps 668 mmHg 6%
14:00 +34°C° 0 mm 1 mps 667 mmHg 6%
15:00 +34°C° 0 mm 1 mps 667 mmHg 6%
16:00 +34°C° 0 mm 1 mps 666 mmHg 6%
17:00 +31°C° 0 mm 2 mps 666 mmHg 8%
18:00 +27°C° 0 mm 2 mps 665 mmHg 10%
19:00 +24°C° 0 mm 2 mps 665 mmHg 11%
20:00 +23°C° 0 mm 2 mps 665 mmHg 12%
21:00 +21°C° 0 mm 2 mps 665 mmHg 13%
22:00 +20°C° 0 mm 2 mps 665 mmHg 14%
23:00 +19°C° 0 mm 2 mps 665 mmHg 15%

Pasado mañana, 16 Agosto, Domingo

Tiempo Temperatura Precipitaciones Viento Presión Humedad
00:00 +18°C° 0 mm 2 mps 665 mmHg 16%
01:00 +19°C° 0 mm 1 mps 665 mmHg 17%
02:00 +16°C° 0 mm 2 mps 665 mmHg 22%
03:00 +15°C° 0 mm 2 mps 665 mmHg 27%
04:00 +14°C° 0 mm 2 mps 664 mmHg 32%
05:00 +14°C° 0 mm 2 mps 665 mmHg 33%
06:00 +14°C° 0 mm 1 mps 666 mmHg 34%
07:00 +14°C° 0 mm 1 mps 667 mmHg 36%
08:00 +19°C° 0 mm 1 mps 667 mmHg 28%
09:00 +23°C° 0 mm 2 mps 668 mmHg 20%
10:00 +28°C° 0 mm 3 mps 669 mmHg 13%
11:00 +30°C° 0 mm 3 mps 669 mmHg 11%
12:00 +32°C° 0 mm 2 mps 668 mmHg 9%
13:00 +35°C° 0 mm 2 mps 668 mmHg 6%
14:00 +36°C° 0 mm 2 mps 667 mmHg 6%
15:00 +35°C° 0 mm 1 mps 667 mmHg 6%
16:00 +35°C° 0 mm 1 mps 666 mmHg 6%
17:00 +32°C° 0 mm 1 mps 666 mmHg 7%
18:00 +28°C° 0 mm 1 mps 665 mmHg 9%
19:00 +25°C° 0 mm 2 mps 665 mmHg 11%
20:00 +23°C° 0 mm 2 mps 665 mmHg 12%
21:00 +21°C° 0 mm 2 mps 665 mmHg 14%
22:00 +20°C° 0 mm 2 mps 665 mmHg 15%
23:00 +19°C° 0 mm 2 mps 665 mmHg 15%

17 Agosto, Lunes

Tiempo Temperatura Precipitaciones Viento Presión Humedad
00:00 +19°C° 0 mm 2 mps 665 mmHg 16%
01:00 +18°C° 0 mm 2 mps 665 mmHg 16%
02:00 +17°C° 0 mm 2 mps 665 mmHg 18%
03:00 +16°C° 0 mm 2 mps 664 mmHg 20%
04:00 +15°C° 0 mm 1 mps 664 mmHg 21%
05:00 +15°C° 0 mm 1 mps 665 mmHg 22%
06:00 +15°C° 0 mm 1 mps 665 mmHg 22%
07:00 +15°C° 0 mm 1 mps 666 mmHg 22%
08:00 +19°C° 0 mm 0 mps 667 mmHg 18%
09:00 +24°C° 0 mm 0 mps 668 mmHg 13%
10:00 +28°C° 0 mm 0 mps 669 mmHg 9%
11:00 +32°C° 0 mm 1 mps 669 mmHg 8%
12:00 +34°C° 0 mm 1 mps 668 mmHg 7%
13:00 +36°C° 0 mm 1 mps 668 mmHg 6%
14:00 +36°C° 0 mm 1 mps 667 mmHg 6%
15:00 +36°C° 0 mm 2 mps 666 mmHg 6%
16:00 +36°C° 0 mm 2 mps 666 mmHg 6%
17:00 +32°C° 0 mm 2 mps 666 mmHg 8%
18:00 +28°C° 0 mm 3 mps 665 mmHg 9%
19:00 +25°C° 0 mm 3 mps 665 mmHg 11%
20:00 +24°C° 0 mm 3 mps 665 mmHg 12%
21:00 +24°C° 0 mm 2 mps 666 mmHg 12%
22:00 +23°C° 0 mm 2 mps 666 mmHg 12%
23:00 +21°C° 0 mm 2 mps 666 mmHg 15%

18 Agosto, Martes

Tiempo Temperatura Precipitaciones Viento Presión Humedad
00:00 +19°C° 0 mm 3 mps 665 mmHg 17%
01:00 +17°C° 0 mm 3 mps 665 mmHg 20%
02:00 +16°C° 0 mm 3 mps 665 mmHg 23%
03:00 +14°C° 0 mm 3 mps 664 mmHg 27%
04:00 +12°C° 0 mm 3 mps 664 mmHg 30%
05:00 +13°C° 0 mm 2 mps 665 mmHg 30%
06:00 +13°C° 0 mm 1 mps 665 mmHg 29%
07:00 +13°C° 0 mm 1 mps 666 mmHg 29%
08:00 +18°C° 0 mm 2 mps 667 mmHg 22%
09:00 +23°C° 0 mm 2 mps 668 mmHg 16%
10:00 +27°C° 0 mm 3 mps 668 mmHg 10%
11:00 +29°C° 0 mm 3 mps 668 mmHg 9%
12:00 +32°C° 0 mm 2 mps 668 mmHg 8%
13:00 +35°C° 0 mm 2 mps 667 mmHg 7%
14:00 +35°C° 0 mm 2 mps 666 mmHg 7%
15:00 +35°C° 0 mm 2 mps 666 mmHg 6%
16:00 +35°C° 0 mm 2 mps 665 mmHg 6%
17:00 +31°C° 0 mm 2 mps 665 mmHg 8%
18:00 +28°C° 0 mm 2 mps 664 mmHg 10%
19:00 +25°C° 0 mm 3 mps 664 mmHg 12%
20:00 +22°C° 0 mm 3 mps 664 mmHg 13%
21:00 +21°C° 0 mm 3 mps 664 mmHg 14%
22:00 +20°C° 0 mm 3 mps 664 mmHg 15%
23:00 +19°C° 0 mm 3 mps 664 mmHg 15%

19 Agosto, Miércoles

Tiempo Temperatura Precipitaciones Viento Presión Humedad
00:00 +19°C° 0 mm 3 mps 664 mmHg 16%
01:00 +18°C° 0 mm 4 mps 665 mmHg 17%
02:00 +17°C° 0 mm 4 mps 665 mmHg 17%
03:00 +16°C° 0 mm 3 mps 665 mmHg 18%
04:00 +14°C° 0 mm 3 mps 665 mmHg 19%
05:00 +14°C° 0 mm 3 mps 665 mmHg 20%
06:00 +14°C° 0 mm 3 mps 666 mmHg 20%
07:00 +14°C° 0 mm 3 mps 667 mmHg 20%
08:00 +19°C° 0 mm 4 mps 668 mmHg 17%
09:00 +23°C° 0 mm 5 mps 668 mmHg 14%
10:00 +28°C° 0 mm 6 mps 669 mmHg 12%
11:00 +30°C° 0 mm 6 mps 668 mmHg 10%
12:00 +34°C° 0 mm 6 mps 668 mmHg 9%
13:00 +36°C° 0 mm 5 mps 667 mmHg 8%
14:00 +36°C° 0 mm 5 mps 666 mmHg 8%
15:00 +36°C° 0 mm 4 mps 666 mmHg 9%
16:00 +36°C° 0 mm 4 mps 665 mmHg 9%
17:00 +33°C° 0 mm 4 mps 665 mmHg 11%
18:00 +29°C° 0 mm 3 mps 664 mmHg 13%
19:00 +26°C° 0 mm 3 mps 664 mmHg 16%
20:00 +25°C° 0 mm 3 mps 664 mmHg 17%
21:00 +24°C° 0 mm 3 mps 664 mmHg 18%
22:00 +21°C° 0 mm 4 mps 664 mmHg 20%
23:00 +21°C° 0 mm 4 mps 664 mmHg 21%
Mostrar más